STARLINK-4021

operational
NORAD ID: 53149 Int'l Des: 2022-083 Owner: SPXS Country: US Constellation: starlink
LEOCIRCULAR

关于 STARLINK-4021

正在加载描述...

实时位置

正在加载3D地球...

即将过境

高度历史

Altitude vs Time

uPlot chart will show altitude changes over time

两行轨道根数

1 53149U 22083T 25251.76293459 .00001343 00000-0 10244-3 0 9992
2 53149 53.2161 261.0286 0001253 90.0516 270.0619 15.08848093173898
Epoch: Sep 8, 2025 • Age: 16 hours

当前状态

高度 543.2 km
速度 7.59 km/s
星下点 -12.03°S, 108.11°E
发射日期 Jul 17, 2022
运行时间 3.1 years
类型 internet

技术详情

分类 Payload
质量 297.00 kg
干质量 275.00 kg
总质量 297.00 kg
长度 0.20 m
直径 2.80 m
跨度 9.00 m
形状 Box + pan
制造商 SPXS
平台类型 Starlink
阶段状态 In Orbit
所有者/国家 SPXS/US

大型星座

Loading constellations...